Regional Weather Roundup
Issued by NWS

Home | Current Version | Previous Version | Graphics & Text | Print | Product List | Glossary On
Versions: 1 2 3 4 5 6 7 8 9 10 11 12 13 14 15 16 17 18 19 20 21 22 23 24 25 26 27 28 29 30 31 32 33 34 35 36 37 38 39 40 41 42 43 44 45 46 47 48 49 50
000
ASUS43 KIND 110309
RWRIN

WEATHER ROUNDUP FOR INDIANA
NATIONAL WEATHER SERVICE INDIANAPOLIS IN
1000 PM EST SUN DEC 10 2017

NOTE: "FAIR" INDICATES FEW OR NO CLOUDS BELOW 12,000 FEET WITH NO
SIGNIFICANT WEATHER AND/OR OBSTRUCTIONS TO VISIBILITY.

* - STATION DOES NOT REPORT WEATHER SUCH AS PRECIPITATION OR FOG.

+ - STATION NOT QUALITY CONTROLLED BY THE NATIONAL WEATHER SERVICE.
    USE DATA WITH CAUTION...ESPECIALLY DEWPOINT AND RELATIVE
    HUMIDITY OBSERVATIONS.

INZ001>003-010>013-019-020-110400-
NORTHWEST INDIANA

CITY           SKY/WX    TMP DP  RH WIND       PRES   REMARKS
KNOX *+        CLOUDY    32  27  80 NW9       30.05R WCI  24
LA PORTE +     CLOUDY    30  23  73 NW10      30.05R WCI  21
MICHIGAN CITY+ CLOUDY    32  23  69 NW6       30.06R WCI  26
MONTICELLO +   CLOUDY    31  21  67 NW10      30.06R WCI  22
RENSSELAER +   CLEAR     27  19  74 W3        30.09R
VALPARAISO     CLOUDY    32  22  66 NW8       30.06R WCI  25

$$

LMZ046-743>745-110400-
SOUTHERN LAKE MICHIGAN

STATION/POSITION TIME  TEMP    WIND        PRES    WAVE
                       AIR SEA DIR/SP/G            HT
                 (UTC) (F)     (DEG/KT/KT) (MB)    (FT)
BURNS HARBOR     0230   32     320/ 12/ 21 1018.6R
MICHIGAN CITY    0240   31     300/ 18/ 20   N/A

$$

INZ004-005-014>016-021>024-110400-
NORTH CENTRAL INDIANA

CITY           SKY/WX    TMP DP  RH WIND       PRES   REMARKS
GOSHEN         CLOUDY    31  24  75 NW10      30.01R WCI  22
LOGANSPORT +   CLOUDY    32  23  69 NW7       30.06R WCI  26
PERU/GRISSOM   CLOUDY    31  24  74 NW9       30.03R WCI  23
ROCHESTER +    CLOUDY    32  27  80 NW9       30.05R WCI  24
SOUTH BEND     CLOUDY    30  24  78 NW10      30.04R WCI  21
WARSAW +       CLOUDY    30  27  86 NW10      30.02R WCI  21

$$

INZ006>009-017-018-025>027-110400-
NORTHEAST INDIANA

CITY           SKY/WX    TMP DP  RH WIND       PRES   REMARKS
AUBURN +       CLOUDY    32  25  74 W9        30.00R WCI  24
FORT WAYNE     CLOUDY    32  24  72 NW9       30.01R WCI  24
HUNTINGTON +   CLOUDY    31  24  74 NW8       30.02R WCI  23
KENDALLVILLE + CLOUDY    30  25  81 NW3       29.99R

$$

INZ028-029-035-036-043>045-051>053-110400-
WEST CENTRAL INDIANA

CITY           SKY/WX    TMP DP  RH WIND       PRES   REMARKS
CRAWFORDSVL +  CLOUDY    28  21  77 NW9       30.04S WCI  19
GREENCASTLE +  CLEAR     32  21  64 NW5       30.08R WCI  27
LAFAYETTE      CLOUDY    28  21  75 NW7       30.08R WCI  21
TERRE HAUTE    CLEAR     33  22  63 NW7       30.10R WCI  27

$$

INZ030>032-037>040-046>048-054>057-064-065-110400-
CENTRAL INDIANA

CITY           SKY/WX    TMP DP  RH WIND       PRES   REMARKS
COLUMBUS       CLEAR     30  21  69 W7        30.07R WCI  23
FRANKFORT +    CLEAR     31  24  73 NW8       30.07R WCI  24
INDIANAPOLIS   PTCLDY    30  22  72 NW9       30.06R WCI  22
-EAGLE CREEK   CLEAR     32  22  66 NW8       30.05R WCI  25
KOKOMO +       CLOUDY    30  24  78 N7        30.04R WCI  23
MARION +       CLOUDY    31  24  74 NW6       30.03R WCI  25
MT COMFORT *+  CLEAR     28  25  86 NW9       30.04R WCI  20
SHELBYVILLE    CLEAR     30  21  69 W8        30.04R WCI  22
ZIONSVILLE +   CLEAR     28  22  75 NW7       30.05R WCI  21

$$

INZ033-034-041-042-049-050-058-059-110400-
EAST CENTRAL INDIANA

CITY           SKY/WX    TMP DP  RH WIND       PRES   REMARKS
MUNCIE         CLOUDY    33  23  66 NW10      30.02R WCI  25
RICHMOND +     CLEAR     28  21  74 W12       30.01R WCI  18

$$

INZ060-061-067>069-081>083-085>088-110400-
SOUTHWEST INDIANA

CITY           SKY/WX    TMP DP  RH WIND       PRES   REMARKS
EVANSVILLE     CLEAR     33  27  78 W3        30.13R
HUNTINGBURG +  CLOUDY    34  25  69 NW8       30.11R WCI  27
WASHINGTON +   CLEAR     35  23  61 W5        30.10S WCI  31

$$

INZ062-063-066-070>080-084-089>092-110400-
SOUTH CENTRAL AND SOUTHEAST INDIANA

CITY           SKY/WX    TMP DP  RH WIND       PRES   REMARKS
BEDFORD +      CLEAR     36  23  60 W6        30.08R WCI  31
BLOOMINGTON    CLEAR     35  22  58 W8        30.07R WCI  29
MADISON *+     CLEAR     32  21  64 SW5       30.08R WCI  27
NORTH VERNON + CLEAR     30  21  69 W6        30.06R WCI  24
SEYMOUR +      CLEAR     32  21  64 W9        30.07R WCI  24

$$





USA.gov is the U.S. government's official web portal to all federal, state and local government web resources and services.